TimeEST,TemperatureF,Dew PointF,Humidity,Sea Level PressureIn,VisibilityMPH,Wind Direction,Wind SpeedMPH,Gust SpeedMPH,PrecipitationIn,Events,Conditions,WindDirDegrees,DateUTC
12:53 AM,43.0,27.0,53,30.22,10.0,West,5.8,-,N/A,,Clear,270,2012-12-23 05:53:00
1:53 AM,43.0,26.1,51,30.22,10.0,West,4.6,-,N/A,,Clear,280,2012-12-23 06:53:00
2:53 AM,39.9,26.1,58,30.21,10.0,West,3.5,-,N/A,,Clear,270,2012-12-23 07:53:00
3:53 AM,36.0,28.0,73,30.21,10.0,Calm,Calm,-,N/A,,Clear,0,2012-12-23 08:53:00
4:53 AM,36.0,30.0,79,30.22,10.0,WSW,4.6,-,N/A,,Clear,240,2012-12-23 09:53:00
5:53 AM,35.1,28.9,78,30.23,10.0,West,3.5,-,N/A,,Clear,270,2012-12-23 10:53:00
6:53 AM,34.0,28.0,79,30.23,10.0,Calm,Calm,-,N/A,,Clear,0,2012-12-23 11:53:00
7:53 AM,34.0,30.0,85,30.25,10.0,Calm,Calm,-,N/A,,Clear,0,2012-12-23 12:53:00
8:53 AM,44.1,30.0,58,30.26,10.0,West,3.5,-,N/A,,Clear,270,2012-12-23 13:53:00
9:53 AM,48.0,25.0,41,30.28,10.0,NNW,3.5,-,N/A,,Clear,330,2012-12-23 14:53:00
10:53 AM,52.0,23.0,32,30.27,10.0,NW,3.5,-,N/A,,Clear,310,2012-12-23 15:53:00
11:53 AM,57.0,21.9,26,30.24,10.0,NNW,5.8,-,N/A,,Clear,340,2012-12-23 16:53:00
12:53 PM,57.2,26.6,31,30.21,10.0,SW,5.8,-,N/A,,Clear,230,2012-12-23 17:53:00
1:53 PM,60.1,28.0,30,30.18,10.0,SW,5.8,-,N/A,,Clear,220,2012-12-23 18:53:00
2:53 PM,59.0,33.1,38,30.17,10.0,South,4.6,-,N/A,,Clear,180,2012-12-23 19:53:00
3:53 PM,57.0,39.0,51,30.17,10.0,SSE,5.8,-,N/A,,Clear,150,2012-12-23 20:53:00
4:53 PM,57.0,39.0,51,30.16,10.0,SSW,6.9,-,N/A,,Clear,210,2012-12-23 21:53:00
5:53 PM,55.9,32.0,40,30.16,10.0,SSW,6.9,-,N/A,,Clear,210,2012-12-23 22:53:00
6:53 PM,55.0,34.0,45,30.16,10.0,SSW,6.9,-,N/A,,Clear,210,2012-12-23 23:53:00
7:53 PM,53.1,39.0,59,30.17,10.0,SW,3.5,-,N/A,,Clear,220,2012-12-24 00:53:00
8:53 PM,52.0,39.0,61,30.16,10.0,Calm,Calm,-,N/A,,Clear,0,2012-12-24 01:53:00
9:53 PM,51.1,39.0,63,30.17,10.0,Calm,Calm,-,N/A,,Clear,0,2012-12-24 02:53:00
10:53 PM,51.1,41.0,68,30.17,10.0,Calm,Calm,-,N/A,,Clear,0,2012-12-24 03:53:00
11:53 PM,48.9,41.0,74,30.17,10.0,Calm,Calm,-,N/A,,Clear,0,2012-12-24 04:53:00